EHI
0 1 0 0 0 0 0 0 0 0 0 0 0 0 0 0 0 0 0 0 0 0 0 0 0 0 0 0 0 1 0 0 1 2 2 1 0 0 1 2 2 2 2 1 0 0 0 0 0
1 1 1 0 0 0 0 0 0 0 0 0 0 0 0 0 0 0 0 0 0 0 0 0 0 0 0 0 1 1 1 0 1 1 1 0 1 1 1 1 1 1 2 1 0 0 0 0 0
1 1 1 0 0 0 0 0 0 0 0 0 0 0 0 0 0 0 1 1 0 0 0 0 0 0 0 0 1 1 1 0 0 0 0 0 1 2 2 1 0 0 1 1 0 0 0 0 0
0 0 0 0 0 0 0 0 0 0 0 0 0 0 0 0 0 1 2 2 0 0 0 0 0 0 0 0 0 0 0 0 0 0 0 0 1 1 1 1 0 0 0 0 0 0 0 0 0
0 0 0 0 0 0 0 0 0 0 0 0 0 0 0 0 1 2 3 1 0 0 0 0 1 1 0 0 0 0 0 0 0 0 0 0 0 0 0 0 0 0 0 1 0 0 0 0 0
0 0 0 0 0 0 0 0 0 0 0 0 0 0 0 0 2 2 2 1 0 0 0 0 1 1 0 0 0 0 0 0 0 0 0 0 0 0 0 0 0 0 0 0 0 0 0 0 0
0 0 0 0 0 0 0 0 0 0 0 0 0 0 0 0 1 2 2 2 1 0 0 0 0 0 0 0 0 0 0 0 0 0 0 0 0 0 0 0 0 0 0 0 0 0 0 0 0
0 0 0 0 0 0 0 0 0 0 0 0 0 0 0 1 1 2 3 4 3 1 0 0 0 0 0 0 0 0 0 0 0 0 0 0 0 0 0 0 0 0 0 0 0 0 0 0 0
0 0 0 0 0 0 0 0 0 0 0 0 0 0 1 2 3 3 4 5 4 1 0 0 0 0 0 0 0 0 0 0 0 0 0 0 0 0 0 0 0 0 0 0 0 0 0 0 0
0 0 0 0 0 0 0 0 0 0 0 0 0 1 2 3 3 3 3 5 5 3 1 0 0 0 0 0 0 0 0 0 0 0 0 0 0 0 0 0 0 0 0 0 0 0 0 0 0
0 0 0 0 0 0 0 0 0 0 0 0 0 1 2 3 3 1 2 4 4 3 1 0 0 0 0 0 0 0 0 0 0 0 0 0 0 0 0 0 0 0 0 0 0 0 0 0 0
0 0 0 0 0 0 0 0 0 0 0 0 0 1 2 3 2 1 0 1 2 2 2 1 0 0 0 0 0 0 0 0 0 0 0 0 0 0 0 0 0 0 0 0 0 0 0 0 0
0 0 0 0 0 0 0 0 0 0 0 0 0 1 2 3 3 1 0 0 0 1 2 2 1 0 0 0 0 0 0 0 0 0 0 0 0 0 0 0 0 0 0 0 0 0 0 0 0
0 0 0 0 0 0 0 0 0 0 0 0 0 1 2 3 3 2 1 0 0 0 1 2 2 1 0 0 0 0 0 0 0 0 0 0 0 0 0 0 0 0 0 0 0 0 0 0 0
0 0 0 0 0 0 0 0 0 0 0 0 0 1 2 3 4 3 1 0 0 1 2 3 3 2 1 0 0 0 0 0 0 0 0 0 0 0 0 0 0 0 0 0 0 0 0 0 0
0 0 0 0 0 0 0 0 0 0 0 0 0 1 2 3 4 3 1 0 1 2 3 3 3 3 1 0 0 0 0 0 0 0 0 0 0 0 0 0 0 0 0 0 0 0 0 0 0
0 0 0 0 0 0 0 0 0 0 0 0 0 0 1 3 4 4 3 2 2 3 3 3 3 3 2 1 0 0 0 0 0 0 0 0 0 0 0 0 0 0 0 0 0 0 0 0 0
0 0 0 0 0 0 0 0 0 0 0 0 0 0 1 2 3 4 3 3 3 3 3 3 3 3 3 2 1 0 0 0 0 0 0 0 0 0 0 0 0 0 0 0 0 0 0 0 0
0 0 0 0 0 0 0 0 0 0 0 0 0 0 0 1 2 3 3 3 2 2 3 3 3 3 3 3 1 0 0 0 0 0 0 0 0 0 0 0 0 0 0 0 0 0 0 0 0
0 0 0 0 0 0 0 0 0 0 0 0 0 0 0 0 1 3 3 3 1 1 1 2 3 3 3 3 2 1 0 0 0 0 0 0 0 0 0 0 0 0 0 0 0 0 0 0 0
0 0 0 0 0 0 0 0 0 0 0 0 0 0 0 0 1 3 3 2 1 0 0 1 1 2 3 4 4 3 2 1 0 0 0 1 0 0 0 0 0 0 0 0 0 0 0 0 0
0 0 0 0 0 0 0 0 0 0 0 0 0 0 0 0 2 3 3 2 1 0 0 0 0 1 2 4 6 6 5 4 2 0 0 0 0 0 0 0 0 0 0 0 0 0 0 0 0
0 0 0 0 0 0 0 0 0 0 0 0 0 0 0 0 1 3 2 1 1 0 0 0 0 0 1 4 7 8 7 5 3 1 1 1 0 0 0 0 0 0 0 0 0 0 0 0 0
0 0 0 0 0 0 0 0 0 0 0 0 0 0 0 1 1 2 2 1 1 0 0 0 0 0 0 2 6 8 7 6 4 3 3 2 1 0 0 0 0 0 0 0 0 0 0 0 0
0 0 0 0 0 0 0 0 0 0 0 0 0 0 1 2 3 2 2 1 1 0 0 0 0 0 0 1 4 6 6 6 6 6 5 3 1 0 0 0 0 0 0 0 0 0 0 0 0
0 0 0 0 0 0 0 0 0 0 0 0 0 0 1 3 3 2 1 1 1 1 0 0 0 0 0 0 1 3 5 6 6 6 4 2 0 0 0 0 0 0 0 0 0 0 0 0 0
0 0 0 0 0 0 0 0 0 0 0 0 0 0 2 3 2 2 2 1 1 1 0 0 0 0 0 0 0 1 3 5 5 4 3 1 0 0 0 0 0 0 0 0 0 0 0 0 0
0 0 0 0 0 0 0 0 0 0 0 0 0 0 1 2 1 1 2 2 1 0 0 0 0 1 1 1 0 1 4 5 5 4 3 1 0 0 0 0 0 0 0 0 0 0 0 0 0
0 0 0 0 0 0 0 0 0 0 0 0 0 0 0 0 0 1 2 2 1 0 0 0 0 1 1 1 0 1 4 6 6 6 4 2 0 0 0 0 0 0 0 0 0 0 0 0 0
0 0 0 0 0 0 0 0 0 0 0 0 0 0 0 0 0 0 1 1 0 0 0 0 0 0 1 0 0 1 3 5 6 6 5 3 1 0 0 0 0 0 0 0 0 0 0 0 0
Wind_Speed
2 1 2 3 6 6 3 1 2 3 4 4 7 9 8 5 4 4 2 7 8 6 4 6 9 10 10 11 11 11 12 12 13 13 13 13 12 12 11 10 9 10 10 10 10 9 9 9 9
1 1 3 5 5 4 1 1 4 4 5 6 7 7 7 5 4 6 4 7 9 7 5 6 9 10 11 11 11 12 12 12 12 13 13 12 12 12 12 11 10 11 11 10 10 10 9 10 10
1 1 4 4 3 3 2 2 4 4 4 4 5 5 5 5 4 5 6 10 8 7 5 6 10 11 11 11 12 12 12 12 12 12 12 12 12 12 12 12 12 12 11 11 11 10 10 10 10
2 4 5 5 4 2 4 3 4 5 5 5 6 5 4 3 5 6 10 11 9 7 5 7 11 11 11 11 12 12 11 11 12 11 11 11 12 12 12 12 12 12 12 11 11 11 10 10 11
3 4 5 3 2 1 2 3 4 6 4 5 7 6 3 1 7 11 11 11 10 6 5 7 11 11 11 11 11 11 11 11 11 11 11 11 11 12 12 12 13 13 12 12 11 10 10 11 11
4 5 5 2 1 1 1 4 6 7 7 7 7 6 2 2 8 10 11 9 9 8 6 6 10 11 11 10 10 10 10 10 10 9 10 10 10 11 11 12 12 12 12 12 11 11 11 11 10
4 4 3 3 2 1 2 4 6 6 6 5 7 6 2 3 6 9 10 9 8 8 7 4 4 6 9 9 9 9 9 8 8 8 9 8 9 9 10 10 11 11 11 11 11 11 11 11 11
4 5 3 1 2 1 1 3 5 7 5 5 6 7 5 6 7 8 8 7 7 6 6 5 4 4 4 4 7 8 8 7 7 7 8 8 8 8 8 8 9 10 10 10 10 10 10 11 11
4 5 2 2 3 2 1 5 2 4 6 3 3 6 8 9 9 9 7 5 5 6 5 5 5 4 3 3 5 5 6 6 5 5 7 6 3 3 4 6 8 8 8 8 8 9 9 10 10
5 4 4 4 4 3 1 4 2 4 5 3 3 4 8 9 10 9 8 8 7 7 6 5 5 5 4 4 3 2 2 2 2 2 2 2 2 2 3 4 6 7 7 7 8 8 8 7 5
4 5 3 2 3 3 2 1 2 6 3 5 7 8 9 8 8 8 8 8 8 8 7 6 6 5 4 3 2 1 1 1 1 2 2 2 2 2 2 2 2 3 5 4 5 5 4 4 4
3 2 3 2 2 2 3 2 2 4 6 7 9 11 10 9 8 8 8 8 7 7 8 7 6 5 4 3 3 2 1 1 1 1 2 3 2 2 1 1 1 2 2 2 3 3 4 4 4
2 2 2 2 2 3 3 3 4 3 4 6 8 9 10 9 7 7 7 7 7 7 7 7 7 6 5 4 3 3 2 2 2 2 2 3 3 2 2 1 1 2 2 2 2 3 4 4 4
3 2 1 2 2 2 4 2 3 4 5 7 8 8 9 9 8 6 7 7 7 7 7 7 7 6 5 4 3 3 2 2 2 2 2 3 3 2 2 2 2 1 1 2 2 3 3 3 3
1 1 3 2 2 2 3 1 4 6 7 7 7 8 9 8 8 9 9 9 8 8 7 7 7 6 6 5 4 3 2 3 2 2 2 3 3 3 3 2 2 1 2 2 3 3 3 4 4
2 2 1 4 2 2 4 4 6 6 8 7 7 7 8 8 8 9 9 9 8 8 7 7 7 7 6 5 4 3 2 3 2 2 2 3 3 4 3 2 2 2 2 2 3 3 3 3 3
2 1 3 4 2 2 3 5 7 6 8 8 8 7 8 7 7 7 9 10 9 9 9 7 7 7 6 5 4 3 3 3 2 2 2 2 3 3 3 3 2 2 3 2 3 3 2 2 2
3 3 3 4 4 2 3 7 7 6 8 9 8 7 7 8 9 9 9 10 9 9 9 8 7 7 6 4 3 3 3 2 2 2 2 3 2 3 3 3 3 3 3 2 2 3 2 2 2
4 3 4 6 5 3 5 7 8 7 6 7 7 7 8 9 8 7 8 8 8 8 8 8 8 6 6 4 4 3 2 1 1 1 2 3 3 3 3 3 2 2 2 2 3 2 3 2 2
3 3 4 5 4 3 5 7 7 5 7 8 10 9 9 6 5 6 7 8 9 9 8 8 9 8 7 5 4 3 3 2 2 1 2 2 3 3 3 4 3 3 2 2 2 2 2 1 1
4 5 5 4 3 2 1 5 4 4 3 5 7 7 8 9 10 9 8 8 8 9 9 9 9 8 7 6 4 3 2 2 1 1 1 1 2 3 3 3 3 3 3 3 2 2 3 1 0
4 5 5 3 1 3 2 3 6 4 3 4 5 5 7 7 8 8 8 8 9 9 9 8 8 8 7 7 7 7 5 3 3 3 2 2 2 3 3 3 3 3 2 3 3 2 2 3 1
6 5 3 3 2 3 2 2 6 2 2 3 3 4 5 5 7 9 9 9 9 8 8 8 8 7 7 7 8 8 5 3 2 2 3 2 2 2 3 3 3 3 2 3 3 2 2 2 2
2 1 3 4 3 3 5 4 5 3 5 3 2 2 4 5 5 6 6 6 6 6 7 7 7 6 6 7 7 8 7 5 5 4 3 3 1 1 2 3 3 3 3 3 3 3 3 2 2
3 4 3 4 3 5 3 2 5 5 3 4 4 2 2 2 3 4 4 4 5 5 6 7 7 6 6 6 7 8 8 8 8 6 5 4 2 2 3 3 3 2 2 3 2 2 2 3 3
2 6 6 3 4 5 2 2 4 3 2 3 4 3 3 3 3 3 4 4 4 5 6 6 7 7 7 6 6 6 7 6 5 6 5 5 4 4 4 4 3 3 3 2 2 2 2 2 2
2 2 5 5 2 2 3 2 3 2 3 3 3 4 3 3 3 3 3 3 3 4 4 5 6 6 6 6 6 5 6 6 6 5 5 4 4 4 4 4 4 3 3 3 3 2 2 2 2
4 4 3 3 2 2 3 2 3 2 1 0 2 2 2 2 2 3 3 3 3 3 3 4 5 5 5 5 5 5 6 6 5 5 5 5 5 4 4 4 4 4 3 3 3 2 2 2 2
0 1 3 2 3 4 3 5 5 6 5 3 2 3 3 3 3 3 2 2 2 3 3 3 3 3 3 3 4 4 4 4 5 5 5 5 4 4 5 5 5 4 4 3 3 3 3 3 2
3 3 4 3 3 3 3 6 5 4 3 3 2 3 3 4 3 3 3 3 3 2 2 2 2 3 3 3 3 3 3 3 4 4 5 5 5 5 5 5 5 5 4 4 4 4 3 4 3
Wind_Direction
310 343 76 59 53 54 61 22 112 84 61 60 75 82 86 72 98 128 168 140 131 127 113 99 93 93 91 90 90 90 90 88 87 84 82 80 80 80 77 72 79 89 90 87 83 80 82 84 84
4 30 62 56 76 75 34 134 97 99 130 118 83 83 80 72 87 116 130 144 136 131 122 109 102 98 96 93 93 92 91 90 89 87 84 81 80 80 77 72 81 90 90 86 82 79 80 82 80
316 71 78 67 85 130 145 165 124 104 101 96 80 64 84 113 119 139 153 147 135 128 123 118 111 105 100 98 97 95 94 92 90 89 86 82 80 80 78 75 79 84 84 83 81 78 79 80 80
55 44 57 74 90 164 161 174 138 105 72 75 98 72 69 120 142 143 144 141 131 128 126 124 116 111 106 103 101 98 98 95 93 91 87 84 83 84 82 79 79 80 80 80 80 79 77 77 77
66 72 62 67 89 159 158 157 134 114 106 97 98 96 75 72 123 133 143 141 137 135 133 128 122 118 112 108 104 101 100 98 97 96 93 89 88 87 84 82 80 78 77 76 77 77 76 76 77
56 66 80 92 93 116 150 136 120 112 114 114 106 108 119 151 135 144 147 145 142 140 138 130 127 123 120 116 113 109 104 103 101 100 99 96 92 90 88 85 83 80 78 76 73 72 73 76 76
104 97 122 141 112 102 152 132 125 132 131 139 126 109 136 175 160 150 146 143 142 141 137 131 132 127 125 124 122 118 112 108 106 104 102 102 101 98 94 91 87 83 80 77 74 72 72 71 70
130 104 89 95 116 155 142 99 123 124 124 134 122 135 170 193 161 142 137 137 139 142 144 145 143 136 131 132 130 124 118 111 104 102 102 101 106 103 97 91 89 86 82 79 76 75 74 71 68
90 82 124 176 158 194 98 91 83 102 108 108 123 159 171 159 142 134 128 131 140 147 154 154 155 155 148 150 141 127 122 115 109 100 104 95 84 87 90 94 96 91 86 80 73 70 68 67 64
90 124 195 195 170 163 134 116 129 89 91 85 80 103 135 141 143 145 147 153 157 161 166 162 161 166 164 157 131 122 121 112 108 108 106 95 93 85 94 93 94 89 82 74 68 66 62 60 54
127 162 194 196 176 163 155 143 119 120 129 161 158 150 147 147 150 155 159 162 166 163 163 169 166 165 159 140 137 129 109 109 105 113 125 123 103 81 72 64 64 61 64 55 50 52 48 58 65
126 190 180 193 188 167 171 149 123 150 185 176 165 157 155 157 164 166 163 164 159 154 162 169 164 159 159 147 147 144 127 121 120 127 119 115 109 102 100 84 65 58 57 61 50 54 53 59 73
132 197 198 202 202 176 153 156 152 183 179 149 144 146 160 167 174 175 165 156 153 154 163 165 163 160 160 150 153 141 140 141 143 129 120 118 121 125 110 96 89 79 76 80 74 67 68 68 71
183 179 220 199 203 176 154 179 148 198 164 150 152 163 173 176 176 163 159 160 163 162 164 164 157 155 147 146 149 147 147 135 129 126 132 132 131 132 121 107 93 89 95 99 91 82 81 74 75
143 53 329 265 202 187 132 223 207 195 166 163 171 178 183 185 175 173 174 168 169 165 158 157 154 148 148 150 150 142 140 127 127 134 132 128 129 133 128 120 112 116 110 98 84 71 71 74 72
47 59 287 279 208 198 142 232 246 194 167 178 182 187 192 197 186 183 176 166 166 159 155 159 153 148 148 147 144 136 134 125 130 135 128 128 134 133 125 121 117 113 102 97 94 79 74 65 67
26 204 241 284 249 197 165 227 244 206 178 189 191 192 195 199 199 190 176 170 168 164 159 157 149 151 151 145 143 135 127 124 132 129 128 130 128 129 127 125 125 114 101 98 105 86 94 86 74
221 220 236 247 255 198 213 241 247 217 191 195 195 194 197 198 205 196 181 172 168 165 160 158 154 154 149 137 122 106 100 109 112 122 132 132 130 128 123 123 122 115 105 94 95 98 85 98 103
196 206 241 252 243 212 235 246 248 223 200 199 197 195 198 206 206 189 177 168 162 163 162 163 159 161 151 147 144 136 146 143 120 137 143 141 140 139 130 126 126 121 123 133 125 113 94 76 85
204 233 258 277 257 212 243 260 256 225 203 197 192 195 200 206 196 188 179 171 167 168 171 171 169 167 166 167 164 159 156 158 155 148 140 141 139 143 142 142 145 136 120 113 117 119 115 92 89
243 219 230 249 305 325 294 307 293 280 212 203 201 194 196 192 191 191 184 180 169 173 179 176 177 172 170 162 139 119 92 76 80 103 156 171 155 147 140 152 149 146 141 149 156 145 138 155 263
248 238 227 236 294 278 184 264 281 260 251 225 218 204 204 201 191 187 182 181 179 183 181 177 175 173 171 160 155 155 156 168 192 187 188 191 173 159 156 154 157 160 154 159 175 159 154 147 179
230 244 236 236 215 280 276 194 278 281 237 246 230 204 198 196 187 185 185 185 183 178 174 176 173 174 172 168 167 165 165 178 174 164 174 190 197 182 170 163 159 168 171 176 175 160 161 164 172
221 11 11 46 77 268 246 186 267 248 213 217 217 186 180 182 179 182 184 179 178 175 171 168 168 175 175 172 171 173 171 169 163 172 183 194 200 200 186 166 163 170 176 184 183 176 175 182 178
75 80 24 354 0 257 258 176 250 253 202 173 175 183 163 146 151 152 155 169 175 171 169 165 162 170 175 174 179 182 180 176 178 182 187 184 186 199 205 179 173 174 184 189 181 176 187 187 183
194 144 159 205 234 278 317 218 260 251 161 135 133 127 111 103 113 132 154 160 167 170 167 165 168 171 177 180 189 189 184 183 188 189 187 189 194 199 194 185 185 185 178 180 173 177 193 183 190
164 186 178 160 224 260 274 281 321 14 54 74 89 92 108 122 128 128 129 136 144 154 163 165 170 173 179 184 187 190 190 189 190 191 189 192 194 193 188 185 185 187 181 178 166 184 198 179 189
160 158 95 120 176 257 282 262 233 248 245 92 98 122 139 138 136 129 129 129 133 141 143 150 160 170 178 184 187 187 192 192 187 184 192 197 196 191 182 187 186 184 184 182 174 190 200 181 202
58 96 106 134 168 173 239 266 234 202 200 176 166 169 158 151 151 144 139 139 117 98 108 133 148 146 160 178 183 182 188 186 181 186 197 199 194 188 188 190 187 189 192 188 183 196 186 185 204
178 176 146 161 242 185 188 263 283 197 188 158 162 183 165 156 160 154 134 107 100 106 111 127 153 159 173 174 170 174 176 178 187 199 200 197 193 194 193 193 193 197 197 190 185 198 196 191 199